FREGAT R/B, 42710

Orbit data source: Space-Track

FREGAT R/B, 42710 is space debris in HEO originally from a launch on Thu, 18 May 2017 UTC launched from the French Guiana (FRGUI). Debris objects in space refer to the collection of defunct objects orbiting the Earth. Examples of debris include non-operational satellites, rocket bodies, and fragments generated from explosions, collisions, or faulty payload assembly.

Loading next visibility...
Identifier
42710, 2017-026B
Orbit
HEO
Country
Flag of CISCIS
Related business
Manufacturer
Lavochkin
Mission
Spacecraft
Bus & Motor
FREGAT, Unknown motor
Mass
1,000 kg wet, 1,000 kg dry
Launch date (UTC)
2017-05-18 (8 years ago)
Launch vehicle
Unknown
Launch site
French Guiana (FRGUI)
Object type
Payload
Rocket body
Debris
Shape & HBR
Irr, 1.7 m
Radar Cross Section
12.110 m², Large (>1 m²)

Expand to show TLE details & history
Last TLE update: 1 day ago

TLE from 1 day ago
0 FREGAT R/B
1 42710U 17026B   25260.84045155 -.00000185  00000-0  00000-0 0  9992
2 42710   6.3274  66.3889 6234199 139.4424 289.8365  2.45437681 74764
Epoch: 2025-09-17T20:10Z
TLE epoch observation values (Epoch: 2025-09-17T20:10:15.013Z)
Latitude
-0.0001°
Longitude
126.98696°
Altitude
20,486.052 km
Speed
3.536 km/s
True Right ascension
04h 26m 14s
True Declination
0° 00' 00"
Sunlit
Object was in daylight at epoch
Visualization orbit readout
Latitude
Unknown
Longitude
Unknown
Altitude
Unknown
Speed
Unknown
Apparent Right ascension
Unknown
Apparent Declination
Unknown
Sunlit
N/A
Visualization observer readout
Local Sidereal Time
22:45:57
Azimuth
Unknown
Elevation
Unknown
Doppler factor
Unknown
Orbital elements
Apogee altitude
31,316.397 km
Perigee altitude
2,365.757 km
Semi-major axis
23,219.214 km
Eccentricity
0.62342
Inclination
6.3274°
RAAN
66.3889°
Arg. of periapsis
139.4424°
True anomaly
220.75964°
Mean anomaly
289.8365°
Eccentric anomaly
255.28821°
Mean motion
0.61344 °/min
Orbital period
586.85 mins
BSTAR
0
Loading maneuver chart data...
Computing Atmospheric mass density...
Loading historical data...
Loading historical data...
Loading historical data...
Loading historical data...
Loading historical data...
Loading historical data...
Loading historical data...
Other satellites on launch #26 in the year 2017 (2017-05-18 UTC)

Documentation

Showing up to 5 results
|